USA 130 (DSP 18) 1 24737U 97008A 21062.06577297 .00000026 00000-0 00000+0 0 9998 2 24737 13.6893 17.6265 0000500 333.3233 201.9417 1.00277946 12235 IUS R/B(1) 1 24739U 97008C 21059.66478376 .00000178 00000-0 28167-3 0 9996 2 24739 27.9544 286.7303 7175387 239.2076 32.0279 2.37033635 16534 IUS R/B(2) 1 24740U 97008D 21058.58775450 -.00000089 00000-0 00000-0 0 9996 2 24740 13.8591 18.4358 0021130 133.8235 226.3872 0.99502652 6539